Tracking 19908 objects as of 19-Oct-2019
HD Live streaming from Space Station
objects crossing your sky now

CZ-2D DEB

Track CZ-2D DEB now!
10-day predictions


NORAD ID: 43505
Int'l Code: 2018-025C
Perigee: 501.8 km
Apogee: 525.8 km
Inclination: 97.5 °
Period: 94.8 minutes
Semi major axis: 6884 km
RCS: Unknown
Launch date: March 17, 2018
Source: People's Republic of China (PRC)
Launch site: Jiuquan Satellite Launch Center, China (JSC)

Note: This is SATELLITE DEBRIS
aabbcc
Your satellite tracking list
Your tracking list is empty




NASA's NSSDC Master Catalog

Two Line Element Set (TLE):
1 43505U 18025C   19291.31473809 +.00001486 +00000-0 +72644-4 0  9996
2 43505 097.5253 052.3514 0017418 269.3911 090.5327 15.19715126085548
Source of the keplerian elements: AFSPC